Location: *
(39.6167°S, 171.5333°W)
Time: 19:42:44
(UTC+00:00)

Gbstr 26 Del rocket - Pass Details

Date: 13 May 2021
Orbit: 493 x 1263 km, 51.8° (Epoch: 20 June)

Event Time Altitude Azimuth Distance (km) Brightness Sun altitude
Exits shadow 17:35:57 12° 264° (W) 1,583 4.5 -9.2°
Maximum altitude 17:38:56 29° 204° (SSW) 975 3.7 -8.7°
Drops below altitude 10° 17:42:32 10° 142° (SE) 1,845 5.8 -8.0°
Sets 17:45:09 0° 131° (SE) 2,837 6.9 -7.5°
